Time,TemperatureF,DewpointF,PressureIn,WindDirection,WindDirectionDegrees,WindSpeedMPH,WindSpeedGustMPH,Humidity,HourlyPrecipIn,Conditions,Clouds,dailyrainin,SoftwareType,DateUTC
2013-01-20 00:03:00,68.7,60.5,29.44,NW,315,2.3,2.3,75,0.00,RA,,0.00,WeatherDisplay:10.37,2013-01-19 13:03:00,
2013-01-20 00:08:00,68.5,60.3,29.44,West,270,1.2,1.6,75,0.00,RA,,0.00,WeatherDisplay:10.37,2013-01-19 13:08:00,
2013-01-20 00:13:00,68.5,60.3,29.44,WNW,292,3.6,3.6,75,0.00,CLR,,0.00,WeatherDisplay:10.37,2013-01-19 13:13:00,
2013-01-20 00:18:00,68.4,59.7,29.44,WNW,292,3.5,3.5,74,0.00,CLR,,0.00,WeatherDisplay:10.37,2013-01-19 13:18:00,
2013-01-20 00:23:00,68.4,59.7,29.44,WSW,248,2.3,2.3,74,0.00,CLR,,0.00,WeatherDisplay:10.37,2013-01-19 13:23:00,
2013-01-20 00:28:00,68.4,59.7,29.44,West,270,2.4,2.4,74,0.00,CLR,,0.00,WeatherDisplay:10.37,2013-01-19 13:28:00,
2013-01-20 00:33:00,68.4,59.7,29.41,West,270,3.5,3.5,74,0.00,CLR,,0.00,WeatherDisplay:10.37,2013-01-19 13:33:00,
2013-01-20 00:38:00,68.4,59.7,29.41,WNW,292,2.9,2.9,74,0.00,CLR,,0.00,WeatherDisplay:10.37,2013-01-19 13:38:00,
2013-01-20 00:43:00,68.2,59.6,29.41,WNW,292,3.5,3.5,74,0.00,CLR,,0.00,WeatherDisplay:10.37,2013-01-19 13:43:00,
2013-01-20 00:48:00,68.2,59.6,29.44,West,270,2.0,2.0,74,0.00,CLR,,0.00,WeatherDisplay:10.37,2013-01-19 13:48:00,
2013-01-20 00:53:00,68.2,59.6,29.44,WSW,248,2.4,2.4,74,0.00,CLR,,0.00,WeatherDisplay:10.37,2013-01-19 13:53:00,
2013-01-20 00:58:00,68.2,59.6,29.44,WNW,292,2.9,2.9,74,0.00,CLR,,0.00,WeatherDisplay:10.37,2013-01-19 13:58:00,
2013-01-20 01:03:00,68.2,59.6,29.44,WNW,292,3.5,3.5,74,0.00,CLR,,0.00,WeatherDisplay:10.37,2013-01-19 14:03:00,
2013-01-20 01:08:00,68.0,59.8,29.44,WNW,292,2.3,2.3,75,0.00,CLR,,0.00,WeatherDisplay:10.37,2013-01-19 14:08:00,
2013-01-20 01:13:00,68.0,59.8,29.44,WSW,248,2.3,0.0,75,0.00,CLR,,0.00,WeatherDisplay:10.37,2013-01-19 14:13:00,
2013-01-20 01:18:00,68.2,59.6,29.44,WSW,248,2.3,2.3,74,0.00,CLR,,0.00,WeatherDisplay:10.37,2013-01-19 14:18:00,
2013-01-20 01:23:00,68.2,60.0,29.44,WNW,292,3.1,3.1,75,0.00,CLR,,0.00,WeatherDisplay:10.37,2013-01-19 14:23:00,
2013-01-20 01:28:00,68.2,60.0,29.44,West,270,2.4,2.4,75,0.00,CLR,,0.00,WeatherDisplay:10.37,2013-01-19 14:28:00,
2013-01-20 01:33:00,68.2,60.0,29.41,West,270,2.9,2.9,75,0.00,CLR,,0.00,WeatherDisplay:10.37,2013-01-19 14:33:00,
2013-01-20 01:38:00,68.2,60.0,29.41,West,270,2.3,2.3,75,0.00,CLR,,0.00,WeatherDisplay:10.37,2013-01-19 14:38:00,
2013-01-20 01:43:00,68.2,60.0,29.41,West,270,3.5,3.5,75,0.00,CLR,,0.00,WeatherDisplay:10.37,2013-01-19 14:43:00,
2013-01-20 01:48:00,68.2,60.0,29.41,WNW,292,3.5,3.5,75,0.00,CLR,,0.00,WeatherDisplay:10.37,2013-01-19 14:48:00,
2013-01-20 01:53:00,68.0,59.8,29.41,WNW,292,2.4,2.4,75,0.00,CLR,,0.00,WeatherDisplay:10.37,2013-01-19 14:53:00,
2013-01-20 01:58:00,68.0,59.8,29.41,West,270,3.5,3.5,75,0.00,CLR,,0.00,WeatherDisplay:10.37,2013-01-19 14:58:00,
2013-01-20 02:03:00,68.0,59.8,29.41,NNW,338,2.3,2.3,75,0.00,CLR,,0.00,WeatherDisplay:10.37,2013-01-19 15:03:00,
2013-01-20 02:08:00,68.0,59.8,29.41,West,270,3.5,3.5,75,0.00,CLR,,0.00,WeatherDisplay:10.37,2013-01-19 15:08:00,
2013-01-20 02:13:00,68.2,60.0,29.41,West,270,2.6,2.6,75,0.00,CLR,,0.00,WeatherDisplay:10.37,2013-01-19 15:13:00,
2013-01-20 02:18:00,68.2,60.0,29.41,West,270,2.3,2.3,75,0.00,CLR,,0.00,WeatherDisplay:10.37,2013-01-19 15:18:00,
2013-01-20 02:23:00,68.0,60.2,29.41,WNW,292,2.3,2.3,76,0.00,CLR,,0.00,WeatherDisplay:10.37,2013-01-19 15:23:00,
2013-01-20 02:28:00,68.0,60.2,29.41,WNW,292,2.4,2.4,76,0.00,CLR,,0.00,WeatherDisplay:10.37,2013-01-19 15:28:00,
2013-01-20 02:33:00,68.0,60.2,29.41,WNW,292,2.3,2.3,76,0.00,CLR,,0.00,WeatherDisplay:10.37,2013-01-19 15:33:00,
2013-01-20 02:39:00,68.0,60.2,29.41,West,270,2.3,2.3,76,0.00,CLR,,0.00,WeatherDisplay:10.37,2013-01-19 15:39:00,
2013-01-20 02:44:00,68.0,60.2,29.41,West,270,2.3,2.3,76,0.00,CLR,,0.00,WeatherDisplay:10.37,2013-01-19 15:44:00,
2013-01-20 02:49:00,68.0,60.2,29.38,WNW,292,2.3,2.3,76,0.00,CLR,,0.00,WeatherDisplay:10.37,2013-01-19 15:49:00,
2013-01-20 02:54:00,68.0,60.2,29.38,West,270,0.0,0.0,76,0.00,CLR,,0.00,WeatherDisplay:10.37,2013-01-19 15:54:00,
2013-01-20 02:59:00,68.0,60.2,29.38,NW,315,0.0,0.0,76,0.00,CLR,,0.00,WeatherDisplay:10.37,2013-01-19 15:59:00,
2013-01-20 03:04:00,68.0,60.2,29.41,WNW,292,0.0,0.0,76,0.00,CLR,,0.00,WeatherDisplay:10.37,2013-01-19 16:04:00,
2013-01-20 03:09:00,68.0,60.2,29.41,West,270,2.3,2.3,76,0.00,CLR,,0.00,WeatherDisplay:10.37,2013-01-19 16:09:00,
2013-01-20 03:14:00,68.0,60.2,29.41,WNW,292,2.3,2.3,76,0.00,CLR,,0.00,WeatherDisplay:10.37,2013-01-19 16:14:00,
2013-01-20 03:19:00,68.0,60.2,29.41,WNW,292,2.3,2.3,76,0.00,CLR,,0.00,WeatherDisplay:10.37,2013-01-19 16:19:00,
2013-01-20 03:24:00,68.0,60.2,29.41,West,270,0.0,0.0,76,0.00,CLR,,0.00,WeatherDisplay:10.37,2013-01-19 16:24:00,
2013-01-20 03:29:00,68.0,60.5,29.41,WNW,292,0.0,0.9,77,0.00,CLR,,0.00,WeatherDisplay:10.37,2013-01-19 16:29:00,
2013-01-20 03:34:00,68.0,60.2,29.41,SW,225,0.0,0.0,76,0.00,CLR,,0.00,WeatherDisplay:10.37,2013-01-19 16:34:00,
2013-01-20 03:39:00,68.0,60.2,29.41,WSW,248,1.2,1.2,76,0.00,CLR,,0.00,WeatherDisplay:10.37,2013-01-19 16:39:00,
2013-01-20 03:44:00,68.0,60.5,29.41,WNW,292,2.3,2.3,77,0.00,CLR,,0.00,WeatherDisplay:10.37,2013-01-19 16:44:00,
2013-01-20 03:49:00,68.0,60.2,29.41,WNW,292,2.4,2.4,76,0.00,CLR,,0.00,WeatherDisplay:10.37,2013-01-19 16:49:00,
2013-01-20 03:54:00,68.2,60.3,29.41,West,270,1.6,1.6,76,0.00,CLR,,0.00,WeatherDisplay:10.37,2013-01-19 16:54:00,
2013-01-20 03:59:00,68.2,60.3,29.41,West,270,1.2,0.0,76,0.00,CLR,,0.00,WeatherDisplay:10.37,2013-01-19 16:59:00,
2013-01-20 04:04:00,68.0,60.5,29.41,West,270,1.2,1.2,77,0.00,CLR,,0.00,WeatherDisplay:10.37,2013-01-19 17:04:00,
2013-01-20 04:09:00,68.0,60.5,29.41,West,270,0.0,0.0,77,0.00,CLR,,0.00,WeatherDisplay:10.37,2013-01-19 17:09:00,
2013-01-20 04:14:00,68.0,60.5,29.41,West,270,1.6,0.0,77,0.00,CLR,,0.00,WeatherDisplay:10.37,2013-01-19 17:14:00,
2013-01-20 04:19:00,68.2,60.7,29.41,WNW,292,2.3,2.3,77,0.00,CLR,,0.00,WeatherDisplay:10.37,2013-01-19 17:19:00,
2013-01-20 04:24:00,68.2,60.7,29.41,WNW,292,2.3,2.3,77,0.00,CLR,,0.00,WeatherDisplay:10.37,2013-01-19 17:24:00,
2013-01-20 04:29:00,68.2,60.3,29.41,West,270,1.2,1.2,76,0.00,CLR,,0.00,WeatherDisplay:10.37,2013-01-19 17:29:00,
2013-01-20 04:34:00,68.0,60.2,29.41,WNW,292,2.3,2.3,76,0.00,CLR,,0.00,WeatherDisplay:10.37,2013-01-19 17:34:00,
2013-01-20 04:39:00,68.2,60.7,29.41,WNW,292,1.2,1.4,77,0.00,CLR,,0.00,WeatherDisplay:10.37,2013-01-19 17:39:00,
2013-01-20 04:44:00,68.2,60.7,29.41,WNW,292,2.3,2.3,77,0.00,CLR,,0.00,WeatherDisplay:10.37,2013-01-19 17:44:00,
2013-01-20 04:49:00,68.2,60.7,29.41,West,270,2.0,2.0,77,0.00,CLR,,0.00,WeatherDisplay:10.37,2013-01-19 17:49:00,
2013-01-20 04:54:00,68.2,60.3,29.41,WSW,248,2.3,0.0,76,0.00,CLR,,0.00,WeatherDisplay:10.37,2013-01-19 17:54:00,
2013-01-20 04:59:00,68.2,60.7,29.41,West,270,1.6,0.0,77,0.00,CLR,,0.00,WeatherDisplay:10.37,2013-01-19 17:59:00,
2013-01-20 05:04:00,68.2,60.7,29.41,WNW,292,1.2,0.0,77,0.00,CLR,,0.00,WeatherDisplay:10.37,2013-01-19 18:04:00,
2013-01-20 05:10:00,68.2,60.7,29.41,West,270,0.0,0.0,77,0.00,CLR,,0.00,WeatherDisplay:10.37,2013-01-19 18:10:00,
2013-01-20 05:15:00,68.2,60.7,29.41,West,273,0.0,3.0,77,0.00,CLR,,0.00,WeatherDisplay:10.37,2013-01-19 18:15:00,
2013-01-20 05:20:00,68.2,60.7,29.44,WNW,292,1.2,1.2,77,0.00,CLR,,0.00,WeatherDisplay:10.37,2013-01-19 18:20:00,
2013-01-20 05:25:00,68.2,60.7,29.44,West,270,2.3,2.3,77,0.00,CLR,,0.00,WeatherDisplay:10.37,2013-01-19 18:25:00,
2013-01-20 05:30:00,68.2,60.7,29.44,NW,315,2.0,0.0,77,0.00,CLR,,0.00,WeatherDisplay:10.37,2013-01-19 18:30:00,
2013-01-20 05:35:00,68.2,60.7,29.44,WNW,292,1.2,0.0,77,0.00,CLR,,0.00,WeatherDisplay:10.37,2013-01-19 18:35:00,
2013-01-20 05:40:00,68.2,60.7,29.44,WNW,292,0.0,0.0,77,0.00,CLR,,0.00,WeatherDisplay:10.37,2013-01-19 18:40:00,
2013-01-20 05:45:00,68.2,61.1,29.44,West,270,0.0,0.0,78,0.00,CLR,,0.00,WeatherDisplay:10.37,2013-01-19 18:45:00,
2013-01-20 05:50:00,68.0,60.9,29.44,West,270,1.2,0.0,78,0.00,CLR,,0.00,WeatherDisplay:10.37,2013-01-19 18:50:00,
2013-01-20 05:55:00,68.0,60.9,29.44,WNW,292,0.0,0.0,78,0.00,CLR,,0.00,WeatherDisplay:10.37,2013-01-19 18:55:00,
2013-01-20 06:00:00,68.0,60.9,29.44,West,270,0.0,0.0,78,0.00,CLR,,0.00,WeatherDisplay:10.37,2013-01-19 19:00:00,
2013-01-20 06:06:00,68.0,60.9,29.44,West,270,0.0,0.0,78,0.00,CLR,,0.00,WeatherDisplay:10.37,2013-01-19 19:06:00,
2013-01-20 06:11:00,68.0,60.9,29.44,West,270,0.0,0.0,78,0.00,CLR,,0.00,WeatherDisplay:10.37,2013-01-19 19:11:00,
2013-01-20 06:16:00,68.0,60.9,29.44,West,270,0.0,0.0,78,0.00,CLR,,0.00,WeatherDisplay:10.37,2013-01-19 19:16:00,
2013-01-20 06:21:00,68.0,61.2,29.44,West,270,0.0,0.0,79,0.00,CLR,,0.00,WeatherDisplay:10.37,2013-01-19 19:21:00,
2013-01-20 06:26:00,68.0,60.9,29.44,West,270,0.0,0.0,78,0.00,CLR,,0.00,WeatherDisplay:10.37,2013-01-19 19:26:00,
2013-01-20 06:31:00,68.0,60.9,29.44,West,270,0.0,0.0,78,0.00,CLR,,0.00,WeatherDisplay:10.37,2013-01-19 19:31:00,
2013-01-20 06:36:00,67.8,61.1,29.44,WNW,292,0.9,0.0,79,0.00,CLR,,0.00,WeatherDisplay:10.37,2013-01-19 19:36:00,
2013-01-20 06:41:00,67.8,61.1,29.44,WNW,292,0.0,0.0,79,0.00,CLR,,0.00,WeatherDisplay:10.37,2013-01-19 19:41:00,
2013-01-20 06:46:00,68.0,60.9,29.44,West,270,1.2,0.0,78,0.00,CLR,,0.00,WeatherDisplay:10.37,2013-01-19 19:46:00,
2013-01-20 06:51:00,68.0,61.2,29.44,WNW,292,2.9,2.9,79,0.00,CLR,,0.00,WeatherDisplay:10.37,2013-01-19 19:51:00,
2013-01-20 06:56:00,68.0,60.9,29.44,WNW,292,2.9,2.9,78,0.00,CLR,,0.00,WeatherDisplay:10.37,2013-01-19 19:56:00,
2013-01-20 07:01:00,68.0,60.9,29.44,WNW,292,2.6,2.6,78,0.00,CLR,,0.00,WeatherDisplay:10.37,2013-01-19 20:01:00,
2013-01-20 07:06:00,68.0,60.9,29.44,WNW,292,2.0,2.0,78,0.00,CLR,,0.00,WeatherDisplay:10.37,2013-01-19 20:06:00,
2013-01-20 07:11:00,68.0,60.9,29.44,West,270,1.4,1.4,78,0.00,CLR,,0.05,WeatherDisplay:10.37,2013-01-19 20:11:00,
2013-01-20 07:16:00,68.0,60.9,29.47,West,270,2.3,2.3,78,0.05,RA,,0.05,WeatherDisplay:10.37,2013-01-19 20:16:00,
2013-01-20 07:21:00,68.0,61.2,29.47,WNW,292,2.3,2.3,79,0.05,RA,,0.05,WeatherDisplay:10.37,2013-01-19 20:21:00,
2013-01-20 07:27:00,68.0,61.2,29.47,West,270,2.3,2.3,79,0.05,CLR,OVC,0.05,WeatherDisplay:10.37,2013-01-19 20:27:00,
2013-01-20 07:32:00,68.0,61.2,29.47,WNW,292,3.5,3.5,79,0.08,RA,OVC,0.08,WeatherDisplay:10.37,2013-01-19 20:32:00,
2013-01-20 07:37:00,68.2,61.4,29.47,West,270,2.3,2.3,79,0.08,RA,OVC,0.08,WeatherDisplay:10.37,2013-01-19 20:37:00,
2013-01-20 07:42:00,68.2,61.4,29.47,West,270,2.6,2.6,79,0.08,CLR,OVC,0.08,WeatherDisplay:10.37,2013-01-19 20:42:00,
2013-01-20 07:47:00,68.2,61.4,29.47,WNW,292,3.5,3.5,79,0.08,CLR,OVC,0.08,WeatherDisplay:10.37,2013-01-19 20:47:00,
2013-01-20 07:52:00,68.2,61.4,29.47,WNW,292,2.9,2.9,79,0.08,CLR,OVC,0.08,WeatherDisplay:10.37,2013-01-19 20:52:00,
2013-01-20 07:57:00,68.2,61.8,29.47,WNW,292,2.4,2.4,80,0.08,CLR,OVC,0.08,WeatherDisplay:10.37,2013-01-19 20:57:00,
2013-01-20 08:02:00,68.0,61.6,29.47,West,270,2.3,2.3,80,0.08,CLR,OVC,0.08,WeatherDisplay:10.37,2013-01-19 21:02:00,
2013-01-20 08:07:00,68.0,61.6,29.47,WNW,292,0.0,0.0,80,0.08,CLR,OVC,0.08,WeatherDisplay:10.37,2013-01-19 21:07:00,
2013-01-20 08:12:00,68.2,61.8,29.47,WNW,292,2.3,2.3,80,0.03,CLR,OVC,0.08,WeatherDisplay:10.37,2013-01-19 21:12:00,
2013-01-20 08:18:00,68.0,61.6,29.50,WNW,292,0.0,0.0,80,0.03,CLR,OVC,0.08,WeatherDisplay:10.37,2013-01-19 21:18:00,
2013-01-20 08:26:00,68.2,61.8,29.50,NW,315,0.0,0.0,80,0.03,RA,OVC,0.08,WeatherDisplay:10.37,2013-01-19 21:26:00,
2013-01-20 08:31:00,68.0,61.6,29.50,WNW,283,2.0,0.0,80,0.00,RA,OVC,0.08,WeatherDisplay:10.37,2013-01-19 21:31:00,
2013-01-20 08:36:00,68.2,61.8,29.47,NW,315,2.3,2.3,80,0.00,CLR,OVC,0.08,WeatherDisplay:10.37,2013-01-19 21:36:00,
2013-01-20 08:41:00,68.2,61.8,29.47,WNW,292,2.3,2.3,80,0.00,CLR,OVC,0.08,WeatherDisplay:10.37,2013-01-19 21:41:00,
2013-01-20 08:46:00,68.2,61.8,29.47,NW,315,2.3,2.3,80,0.04,RA,OVC,0.12,WeatherDisplay:10.37,2013-01-19 21:46:00,
2013-01-20 08:51:00,68.2,62.1,29.47,West,270,0.0,0.0,81,0.04,RA,OVC,0.12,WeatherDisplay:10.37,2013-01-19 21:51:00,
2013-01-20 08:56:00,68.2,62.1,29.47,WNW,292,1.4,1.4,81,0.08,RA,OVC,0.16,WeatherDisplay:10.37,2013-01-19 21:56:00,
2013-01-20 09:01:00,68.4,62.3,29.47,West,270,1.4,1.4,81,0.08,RA,OVC,0.16,WeatherDisplay:10.37,2013-01-19 22:01:00,
2013-01-20 09:07:00,68.4,62.3,29.47,WNW,292,2.3,2.3,81,0.08,,OVC,0.16,WeatherDisplay:10.37,2013-01-19 22:07:00,
2013-01-20 09:12:00,68.4,62.3,29.47,WNW,292,2.3,2.3,81,0.08,CLR,OVC,0.16,WeatherDisplay:10.37,2013-01-19 22:12:00,
2013-01-20 09:17:00,68.4,62.3,29.47,WNW,292,0.0,0.0,81,0.08,CLR,OVC,0.16,WeatherDisplay:10.37,2013-01-19 22:17:00,
2013-01-20 09:22:00,68.4,62.3,29.47,WNW,292,0.0,0.0,81,0.08,CLR,OVC,0.16,WeatherDisplay:10.37,2013-01-19 22:22:00,
2013-01-20 09:27:00,68.4,62.3,29.47,WNW,292,2.3,2.3,81,0.08,CLR,OVC,0.16,WeatherDisplay:10.37,2013-01-19 22:27:00,
2013-01-20 09:32:00,68.4,62.3,29.47,WNW,292,3.5,3.5,81,0.08,CLR,OVC,0.16,WeatherDisplay:10.37,2013-01-19 22:32:00,
2013-01-20 09:37:00,68.4,62.3,29.47,NW,315,3.1,3.1,81,0.12,RA,OVC,0.20,WeatherDisplay:10.37,2013-01-19 22:37:00,
2013-01-20 09:42:00,68.2,62.1,29.47,WNW,292,1.2,0.0,81,0.12,RA,OVC,0.20,WeatherDisplay:10.37,2013-01-19 22:42:00,
2013-01-20 09:47:00,68.2,62.5,29.47,WNW,292,0.0,0.0,82,0.08,CLR,OVC,0.20,WeatherDisplay:10.37,2013-01-19 22:47:00,
2013-01-20 09:52:00,68.2,62.5,29.47,NNW,338,1.2,0.0,82,0.08,CLR,OVC,0.20,WeatherDisplay:10.37,2013-01-19 22:52:00,
2013-01-20 09:57:00,68.0,62.6,29.47,NW,315,0.0,0.0,83,0.04,CLR,OVC,0.20,WeatherDisplay:10.37,2013-01-19 22:57:00,
2013-01-20 10:02:00,68.2,62.8,29.47,WNW,292,0.0,0.0,83,0.04,CLR,OVC,0.20,WeatherDisplay:10.37,2013-01-19 23:02:00,
2013-01-20 10:07:00,68.2,62.8,29.47,NW,315,0.0,0.0,83,0.04,CLR,OVC,0.20,WeatherDisplay:10.37,2013-01-19 23:07:00,
2013-01-20 10:12:00,68.2,62.8,29.47,WNW,292,0.0,0.0,83,0.04,CLR,OVC,0.20,WeatherDisplay:10.37,2013-01-19 23:12:00,
2013-01-20 10:17:00,68.2,63.2,29.47,NW,315,0.0,0.0,84,0.04,CLR,OVC,0.20,WeatherDisplay:10.37,2013-01-19 23:17:00,
2013-01-20 10:22:00,68.2,63.2,29.47,NW,315,0.0,0.0,84,0.04,CLR,OVC,0.20,WeatherDisplay:10.37,2013-01-19 23:22:00,
2013-01-20 10:28:00,68.2,62.8,29.47,West,270,2.3,0.0,83,0.08,RA,OVC,0.24,WeatherDisplay:10.37,2013-01-19 23:28:00,
2013-01-20 10:33:00,68.4,63.3,29.47,WNW,292,0.0,0.0,84,0.08,RA,OVC,0.24,WeatherDisplay:10.37,2013-01-19 23:33:00,
2013-01-20 10:38:00,68.4,63.3,29.47,West,270,2.3,2.3,84,0.04,,OVC,0.24,WeatherDisplay:10.37,2013-01-19 23:38:00,
2013-01-20 10:43:00,68.5,63.5,29.47,WNW,292,0.0,0.0,84,0.04,CLR,OVC,0.24,WeatherDisplay:10.37,2013-01-19 23:43:00,
2013-01-20 10:48:00,68.5,63.5,29.47,WNW,292,0.0,0.0,84,0.04,CLR,OVC,0.24,WeatherDisplay:10.37,2013-01-19 23:48:00,
2013-01-20 10:53:00,68.5,63.5,29.47,WNW,292,0.0,0.0,84,0.04,CLR,OVC,0.24,WeatherDisplay:10.37,2013-01-19 23:53:00,
2013-01-20 10:58:00,68.5,63.5,29.47,WNW,292,0.0,0.0,84,0.04,CLR,OVC,0.24,WeatherDisplay:10.37,2013-01-19 23:58:00,
2013-01-20 11:03:00,68.5,63.8,29.47,North,0,0.0,0.0,85,0.08,RA,OVC,0.28,WeatherDisplay:10.37,2013-01-20 00:03:00,
2013-01-20 11:08:00,68.5,63.8,29.47,West,270,1.4,0.0,85,0.08,RA,OVC,0.28,WeatherDisplay:10.37,2013-01-20 00:08:00,
2013-01-20 11:13:00,68.5,63.8,29.47,West,270,1.2,0.0,85,0.08,CLR,OVC,0.28,WeatherDisplay:10.37,2013-01-20 00:13:00,
2013-01-20 11:18:00,68.7,64.0,29.47,WNW,292,0.0,0.0,85,0.08,CLR,OVC,0.28,WeatherDisplay:10.37,2013-01-20 00:18:00,
2013-01-20 11:23:00,68.9,64.2,29.47,WNW,292,1.2,1.2,85,0.08,CLR,OVC,0.28,WeatherDisplay:10.37,2013-01-20 00:23:00,
2013-01-20 11:28:00,68.9,64.5,29.47,North,0,0.0,0.0,86,0.04,CLR,OVC,0.28,WeatherDisplay:10.37,2013-01-20 00:28:00,
2013-01-20 11:33:00,68.9,64.5,29.47,WNW,292,2.3,2.3,86,0.04,CLR,OVC,0.28,WeatherDisplay:10.37,2013-01-20 00:33:00,
2013-01-20 11:38:00,69.1,64.7,29.47,WNW,292,2.3,0.0,86,0.04,CLR,OVC,0.28,WeatherDisplay:10.37,2013-01-20 00:38:00,
2013-01-20 11:43:00,69.3,65.2,29.47,WNW,292,0.0,0.0,87,0.04,CLR,OVC,0.28,WeatherDisplay:10.37,2013-01-20 00:43:00,
2013-01-20 11:48:00,69.3,65.2,29.47,West,270,0.0,0.0,87,0.04,CLR,OVC,0.28,WeatherDisplay:10.37,2013-01-20 00:48:00,
2013-01-20 11:53:00,69.4,65.4,29.47,WSW,248,0.9,0.0,87,0.04,CLR,OVC,0.28,WeatherDisplay:10.37,2013-01-20 00:53:00,
2013-01-20 11:58:00,69.4,65.1,29.47,WNW,292,2.3,2.3,86,0.04,CLR,OVC,0.28,WeatherDisplay:10.37,2013-01-20 00:58:00,
2013-01-20 12:03:00,69.4,65.1,29.47,WNW,292,0.0,0.0,86,0.05,RA,OVC,0.33,WeatherDisplay:10.37,2013-01-20 01:03:00,
2013-01-20 12:08:00,69.4,65.1,29.47,WNW,292,2.3,2.3,86,0.05,RA,OVC,0.33,WeatherDisplay:10.37,2013-01-20 01:08:00,
2013-01-20 12:13:00,69.4,65.1,29.47,WNW,292,1.2,0.0,86,0.05,,OVC,0.33,WeatherDisplay:10.37,2013-01-20 01:13:00,
2013-01-20 12:18:00,69.6,65.2,29.47,WNW,292,0.0,0.0,86,0.05,CLR,OVC,0.33,WeatherDisplay:10.37,2013-01-20 01:18:00,
2013-01-20 12:23:00,69.6,65.6,29.47,WNW,292,0.0,0.0,87,0.05,CLR,OVC,0.33,WeatherDisplay:10.37,2013-01-20 01:23:00,
2013-01-20 12:28:00,69.8,65.4,29.47,WNW,292,0.0,0.0,86,0.05,CLR,OVC,0.33,WeatherDisplay:10.37,2013-01-20 01:28:00,
2013-01-20 12:34:00,70.0,65.6,29.47,West,270,0.0,0.0,86,0.05,CLR,OVC,0.33,WeatherDisplay:10.37,2013-01-20 01:34:00,
2013-01-20 12:39:00,70.0,65.6,29.47,WNW,292,0.0,0.0,86,0.05,CLR,OVC,0.33,WeatherDisplay:10.37,2013-01-20 01:39:00,
2013-01-20 12:44:00,70.0,65.6,29.47,WNW,292,1.2,1.2,86,0.05,CLR,OVC,0.33,WeatherDisplay:10.37,2013-01-20 01:44:00,
2013-01-20 12:49:00,70.2,65.8,29.47,WNW,292,2.3,2.3,86,0.05,CLR,OVC,0.33,WeatherDisplay:10.37,2013-01-20 01:49:00,
2013-01-20 12:54:00,70.2,65.8,29.47,WNW,292,2.3,0.0,86,0.05,CLR,OVC,0.33,WeatherDisplay:10.37,2013-01-20 01:54:00,
2013-01-20 12:59:00,70.3,66.0,29.47,West,270,0.0,0.0,86,0.05,CLR,OVC,0.33,WeatherDisplay:10.37,2013-01-20 01:59:00,
2013-01-20 13:04:00,70.3,66.0,29.44,WNW,292,0.0,0.0,86,0.00,CLR,OVC,0.33,WeatherDisplay:10.37,2013-01-20 02:04:00,
2013-01-20 13:09:00,70.3,66.0,29.44,NW,315,0.0,0.0,86,0.00,CLR,OVC,0.33,WeatherDisplay:10.37,2013-01-20 02:09:00,
2013-01-20 13:14:00,70.5,66.1,29.44,WNW,292,2.0,2.0,86,0.00,CLR,OVC,0.33,WeatherDisplay:10.37,2013-01-20 02:14:00,
2013-01-20 13:19:00,70.5,66.1,29.44,WNW,292,3.5,3.5,86,0.00,CLR,OVC,0.33,WeatherDisplay:10.37,2013-01-20 02:19:00,
2013-01-20 13:24:00,70.5,65.8,29.44,WNW,292,1.2,2.0,85,0.00,CLR,OVC,0.33,WeatherDisplay:10.37,2013-01-20 02:24:00,
2013-01-20 13:29:00,70.5,66.1,29.44,East,90,0.0,0.0,86,0.00,CLR,OVC,0.33,WeatherDisplay:10.37,2013-01-20 02:29:00,
2013-01-20 13:34:00,70.5,66.1,29.44,WNW,292,1.2,0.0,86,0.00,CLR,OVC,0.33,WeatherDisplay:10.37,2013-01-20 02:34:00,
2013-01-20 13:39:00,70.3,66.0,29.44,NW,315,0.0,0.0,86,0.00,CLR,OVC,0.33,WeatherDisplay:10.37,2013-01-20 02:39:00,
2013-01-20 13:44:00,70.5,66.1,29.44,NW,315,0.0,0.0,86,0.00,CLR,OVC,0.33,WeatherDisplay:10.37,2013-01-20 02:44:00,
2013-01-20 13:49:00,70.3,66.0,29.44,WSW,248,1.2,0.0,86,0.00,CLR,OVC,0.33,WeatherDisplay:10.37,2013-01-20 02:49:00,
2013-01-20 13:54:00,70.3,66.0,29.44,NW,315,1.2,1.2,86,0.00,CLR,OVC,0.33,WeatherDisplay:10.37,2013-01-20 02:54:00,
2013-01-20 13:59:00,70.3,66.0,29.44,WNW,292,2.3,2.3,86,0.00,CLR,OVC,0.33,WeatherDisplay:10.37,2013-01-20 02:59:00,
2013-01-20 14:04:00,70.3,66.3,29.44,WNW,292,3.3,3.3,87,0.00,CLR,OVC,0.33,WeatherDisplay:10.37,2013-01-20 03:04:00,
2013-01-20 14:09:00,70.3,66.3,29.44,West,270,0.0,0.0,87,0.00,CLR,OVC,0.33,WeatherDisplay:10.37,2013-01-20 03:09:00,
2013-01-20 14:14:00,70.3,66.3,29.44,WNW,292,1.2,0.0,87,0.00,CLR,OVC,0.33,WeatherDisplay:10.37,2013-01-20 03:14:00,
2013-01-20 14:19:00,70.5,66.5,29.44,WNW,292,1.2,0.0,87,0.00,CLR,OVC,0.33,WeatherDisplay:10.37,2013-01-20 03:19:00,
2013-01-20 14:24:00,70.7,66.6,29.44,NNW,338,0.0,0.0,87,0.00,CLR,OVC,0.33,WeatherDisplay:10.37,2013-01-20 03:24:00,
2013-01-20 14:30:00,70.7,66.6,29.44,WNW,292,0.0,0.0,87,0.00,CLR,OVC,0.33,WeatherDisplay:10.37,2013-01-20 03:30:00,
2013-01-20 14:35:00,71.1,67.0,29.47,NNW,338,1.2,0.0,87,0.00,CLR,OVC,0.33,WeatherDisplay:10.37,2013-01-20 03:35:00,
2013-01-20 14:40:00,71.1,67.0,29.47,North,0,0.0,0.0,87,0.00,CLR,OVC,0.33,WeatherDisplay:10.37,2013-01-20 03:40:00,
2013-01-20 14:45:00,71.1,67.0,29.47,NNE,22,0.0,0.0,87,0.00,CLR,OVC,0.33,WeatherDisplay:10.37,2013-01-20 03:45:00,
2013-01-20 14:50:00,71.2,67.2,29.44,NW,315,2.3,2.3,87,0.00,CLR,OVC,0.33,WeatherDisplay:10.37,2013-01-20 03:50:00,
2013-01-20 14:55:00,71.4,67.3,29.44,NNW,338,0.0,0.0,87,0.00,CLR,OVC,0.33,WeatherDisplay:10.37,2013-01-20 03:55:00,
2013-01-20 15:00:00,71.4,67.3,29.44,NNE,22,0.0,0.0,87,0.00,CLR,OVC,0.33,WeatherDisplay:10.37,2013-01-20 04:00:00,
2013-01-20 15:05:00,71.4,67.3,29.41,ENE,68,0.0,0.0,87,0.00,CLR,OVC,0.33,WeatherDisplay:10.37,2013-01-20 04:05:00,
2013-01-20 15:10:00,71.4,67.0,29.41,ENE,68,0.0,0.0,86,0.00,CLR,OVC,0.33,WeatherDisplay:10.37,2013-01-20 04:10:00,
2013-01-20 15:15:00,71.4,66.7,29.41,ENE,68,0.0,0.0,85,0.00,CLR,OVC,0.33,WeatherDisplay:10.37,2013-01-20 04:15:00,
2013-01-20 15:20:00,71.4,66.7,29.44,West,270,2.3,0.0,85,0.00,CLR,OVC,0.33,WeatherDisplay:10.37,2013-01-20 04:20:00,
2013-01-20 15:25:00,71.4,66.7,29.44,NW,315,0.0,0.0,85,0.00,CLR,OVC,0.33,WeatherDisplay:10.37,2013-01-20 04:25:00,
2013-01-20 15:30:00,71.2,66.5,29.44,NNW,338,0.0,0.0,85,0.00,CLR,OVC,0.33,WeatherDisplay:10.37,2013-01-20 04:30:00,
2013-01-20 15:35:00,71.2,66.5,29.41,NNW,338,0.0,0.0,85,0.00,CLR,OVC,0.33,WeatherDisplay:10.37,2013-01-20 04:35:00,
2013-01-20 15:40:00,71.1,66.3,29.41,NW,315,0.0,0.0,85,0.00,CLR,OVC,0.33,WeatherDisplay:10.37,2013-01-20 04:40:00,
2013-01-20 15:45:00,71.1,66.7,29.41,NW,315,0.0,0.0,86,0.00,CLR,OVC,0.33,WeatherDisplay:10.37,2013-01-20 04:45:00,
2013-01-20 15:51:00,71.1,66.3,29.41,NNE,22,0.0,0.0,85,0.00,CLR,OVC,0.33,WeatherDisplay:10.37,2013-01-20 04:51:00,
2013-01-20 15:56:00,71.1,66.3,29.41,NNE,22,0.0,0.0,85,0.00,CLR,OVC,0.33,WeatherDisplay:10.37,2013-01-20 04:56:00,
2013-01-20 16:00:00,70.9,66.5,29.41,North,0,0.0,0.0,86,0.00,CLR,OVC,0.33,WeatherDisplay:10.37,2013-01-20 05:00:00,
2013-01-20 16:01:00,70.9,66.5,29.41,North,0,0.0,0.0,86,0.00,CLR,OVC,0.33,WeatherDisplay:10.37,2013-01-20 05:01:00,
2013-01-20 16:05:00,70.9,66.5,29.38,WNW,292,0.0,0.0,86,0.00,CLR,OVC,0.33,WeatherDisplay:10.37,2013-01-20 05:05:00,
2013-01-20 16:11:00,71.1,67.0,29.38,WNW,292,0.0,0.0,87,0.00,CLR,OVC,0.33,WeatherDisplay:10.37,2013-01-20 05:11:00,
2013-01-20 16:16:00,71.2,67.2,29.38,WNW,292,0.0,0.0,87,0.00,CLR,OVC,0.33,WeatherDisplay:10.37,2013-01-20 05:16:00,
2013-01-20 16:21:00,71.2,67.2,29.38,NW,315,0.0,0.0,87,0.00,CLR,OVC,0.33,WeatherDisplay:10.37,2013-01-20 05:21:00,
2013-01-20 16:26:00,71.2,67.2,29.38,WNW,292,0.0,0.0,87,0.00,CLR,OVC,0.33,WeatherDisplay:10.37,2013-01-20 05:26:00,
2013-01-20 16:31:00,71.2,66.8,29.38,WNW,292,2.3,2.3,86,0.00,CLR,OVC,0.33,WeatherDisplay:10.37,2013-01-20 05:31:00,
2013-01-20 16:36:00,71.2,66.8,29.38,NW,315,0.0,0.0,86,0.00,CLR,OVC,0.33,WeatherDisplay:10.37,2013-01-20 05:36:00,
2013-01-20 16:41:00,71.2,66.8,29.38,NW,315,0.0,0.0,86,0.00,CLR,OVC,0.33,WeatherDisplay:10.37,2013-01-20 05:41:00,
2013-01-20 16:46:00,71.2,66.8,29.38,West,270,0.0,0.0,86,0.00,CLR,OVC,0.33,WeatherDisplay:10.37,2013-01-20 05:46:00,
2013-01-20 16:51:00,71.4,67.3,29.38,WNW,292,0.0,0.0,87,0.00,CLR,OVC,0.33,WeatherDisplay:10.37,2013-01-20 05:51:00,
2013-01-20 16:56:00,71.6,67.2,29.38,NW,315,0.0,0.0,86,0.00,CLR,OVC,0.33,WeatherDisplay:10.37,2013-01-20 05:56:00,
2013-01-20 17:01:00,71.6,67.5,29.38,NNE,22,0.0,0.0,87,0.00,CLR,OVC,0.33,WeatherDisplay:10.37,2013-01-20 06:01:00,
2013-01-20 17:06:00,71.8,67.7,29.38,NNE,22,0.0,0.0,87,0.00,CLR,OVC,0.33,WeatherDisplay:10.37,2013-01-20 06:06:00,
2013-01-20 17:11:00,71.8,67.4,29.38,WNW,292,0.0,0.0,86,0.00,CLR,OVC,0.33,WeatherDisplay:10.37,2013-01-20 06:11:00,
2013-01-20 17:16:00,71.8,67.4,29.38,NW,315,0.0,0.0,86,0.00,CLR,OVC,0.33,WeatherDisplay:10.37,2013-01-20 06:16:00,
2013-01-20 17:21:00,71.6,67.2,29.38,NNE,22,0.0,0.0,86,0.00,CLR,OVC,0.33,WeatherDisplay:10.37,2013-01-20 06:21:00,
2013-01-20 17:26:00,71.8,67.7,29.38,North,0,0.0,0.0,87,0.00,CLR,OVC,0.33,WeatherDisplay:10.37,2013-01-20 06:26:00,
2013-01-20 17:31:00,71.8,67.7,29.38,NNE,22,1.2,0.0,87,0.00,CLR,OVC,0.33,WeatherDisplay:10.37,2013-01-20 06:31:00,
2013-01-20 17:36:00,71.6,67.2,29.38,NNE,22,0.0,0.0,86,0.00,CLR,OVC,0.33,WeatherDisplay:10.37,2013-01-20 06:36:00,
2013-01-20 17:41:00,71.6,67.2,29.38,NW,315,0.0,0.0,86,0.00,CLR,OVC,0.33,WeatherDisplay:10.37,2013-01-20 06:41:00,
2013-01-20 17:46:00,71.6,67.2,29.38,NNE,22,0.0,0.0,86,0.00,CLR,OVC,0.33,WeatherDisplay:10.37,2013-01-20 06:46:00,
2013-01-20 17:51:00,71.6,67.5,29.35,NW,315,0.0,0.0,87,0.00,CLR,OVC,0.33,WeatherDisplay:10.37,2013-01-20 06:51:00,
2013-01-20 17:56:00,71.4,67.3,29.35,NW,315,0.0,0.0,87,0.00,CLR,OVC,0.33,WeatherDisplay:10.37,2013-01-20 06:56:00,
2013-01-20 18:01:00,71.4,67.3,29.35,NW,315,0.0,0.0,87,0.00,CLR,OVC,0.33,WeatherDisplay:10.37,2013-01-20 07:01:00,
2013-01-20 18:06:00,71.4,67.3,29.38,NNW,338,0.0,0.0,87,0.00,CLR,OVC,0.33,WeatherDisplay:10.37,2013-01-20 07:06:00,
2013-01-20 18:11:00,71.2,67.2,29.38,NNW,338,0.0,0.0,87,0.00,CLR,OVC,0.33,WeatherDisplay:10.37,2013-01-20 07:11:00,
2013-01-20 18:16:00,71.2,67.2,29.38,North,0,0.0,0.0,87,0.00,CLR,OVC,0.33,WeatherDisplay:10.37,2013-01-20 07:16:00,
2013-01-20 18:21:00,71.1,66.7,29.38,West,270,0.0,0.0,86,0.00,CLR,OVC,0.33,WeatherDisplay:10.37,2013-01-20 07:21:00,
2013-01-20 18:26:00,71.2,67.2,29.38,North,0,0.0,0.0,87,0.04,RA,OVC,0.37,WeatherDisplay:10.37,2013-01-20 07:26:00,
2013-01-20 18:31:00,71.2,67.2,29.38,WNW,292,0.0,0.0,87,0.04,RA,OVC,0.37,WeatherDisplay:10.37,2013-01-20 07:31:00,
2013-01-20 18:36:00,71.1,67.0,29.38,NW,315,0.0,0.0,87,0.04,,OVC,0.37,WeatherDisplay:10.37,2013-01-20 07:36:00,
2013-01-20 18:41:00,71.1,67.0,29.38,North,0,0.0,0.0,87,0.04,CLR,OVC,0.37,WeatherDisplay:10.37,2013-01-20 07:41:00,
2013-01-20 18:46:00,71.1,67.0,29.38,NNW,338,0.0,0.0,87,0.04,CLR,OVC,0.37,WeatherDisplay:10.37,2013-01-20 07:46:00,
2013-01-20 18:51:00,70.9,66.8,29.38,South,180,0.0,0.0,87,0.04,CLR,OVC,0.37,WeatherDisplay:10.37,2013-01-20 07:51:00,
2013-01-20 18:56:00,70.9,66.8,29.38,NNW,338,0.0,0.0,87,0.04,CLR,OVC,0.37,WeatherDisplay:10.37,2013-01-20 07:56:00,
2013-01-20 19:01:00,70.9,66.8,29.41,NE,45,0.0,0.0,87,0.04,CLR,OVC,0.37,WeatherDisplay:10.37,2013-01-20 08:01:00,
2013-01-20 19:06:00,70.9,66.8,29.41,NNE,22,0.0,0.0,87,0.04,CLR,OVC,0.37,WeatherDisplay:10.37,2013-01-20 08:06:00,
2013-01-20 19:11:00,70.7,66.6,29.41,NNE,22,0.0,0.0,87,0.04,CLR,OVC,0.37,WeatherDisplay:10.37,2013-01-20 08:11:00,
2013-01-20 19:16:00,70.7,66.6,29.41,North,0,0.0,0.0,87,0.04,CLR,OVC,0.37,WeatherDisplay:10.37,2013-01-20 08:16:00,
2013-01-20 19:21:00,70.5,66.5,29.41,NNW,338,0.0,0.0,87,0.04,CLR,OVC,0.37,WeatherDisplay:10.37,2013-01-20 08:21:00,
2013-01-20 19:26:00,70.5,66.5,29.41,NNW,338,0.0,0.0,87,0.00,CLR,OVC,0.37,WeatherDisplay:10.37,2013-01-20 08:26:00,
2013-01-20 19:31:00,70.5,66.5,29.41,NW,315,0.0,0.0,87,0.00,CLR,OVC,0.37,WeatherDisplay:10.37,2013-01-20 08:31:00,
2013-01-20 19:36:00,70.3,66.3,29.41,West,270,0.0,0.0,87,0.00,CLR,OVC,0.37,WeatherDisplay:10.37,2013-01-20 08:36:00,
2013-01-20 19:41:00,70.3,66.3,29.41,WNW,292,0.0,0.0,87,0.00,CLR,OVC,0.37,WeatherDisplay:10.37,2013-01-20 08:41:00,
2013-01-20 19:46:00,70.3,66.3,29.44,WNW,292,0.0,0.0,87,0.00,CLR,OVC,0.37,WeatherDisplay:10.37,2013-01-20 08:46:00,
2013-01-20 19:51:00,70.3,66.3,29.44,WNW,292,0.0,0.0,87,0.00,CLR,OVC,0.37,WeatherDisplay:10.37,2013-01-20 08:51:00,
2013-01-20 19:56:00,70.2,66.1,29.44,WNW,292,0.0,0.0,87,0.00,CLR,OVC,0.37,WeatherDisplay:10.37,2013-01-20 08:56:00,
2013-01-20 20:01:00,70.2,66.4,29.44,WNW,292,0.0,0.0,88,0.00,CLR,OVC,0.37,WeatherDisplay:10.37,2013-01-20 09:01:00,
2013-01-20 20:06:00,70.2,66.4,29.44,WNW,292,0.0,0.0,88,0.00,CLR,OVC,0.37,WeatherDisplay:10.37,2013-01-20 09:06:00,
2013-01-20 20:11:00,70.2,66.4,29.44,WNW,292,0.0,0.0,88,0.00,CLR,OVC,0.37,WeatherDisplay:10.37,2013-01-20 09:11:00,
2013-01-20 20:16:00,70.0,66.3,29.44,WNW,292,0.0,0.0,88,0.00,CLR,OVC,0.37,WeatherDisplay:10.37,2013-01-20 09:16:00,
2013-01-20 20:21:00,70.0,66.3,29.44,WNW,292,0.0,0.0,88,0.00,CLR,OVC,0.37,WeatherDisplay:10.37,2013-01-20 09:21:00,
2013-01-20 20:26:00,69.8,66.1,29.44,WNW,292,0.0,0.0,88,0.00,CLR,OVC,0.37,WeatherDisplay:10.37,2013-01-20 09:26:00,
2013-01-20 20:31:00,69.8,66.1,29.44,WNW,292,0.0,0.0,88,0.00,CLR,OVC,0.37,WeatherDisplay:10.37,2013-01-20 09:31:00,
2013-01-20 20:36:00,69.8,66.1,29.44,WNW,292,0.0,0.0,88,0.00,CLR,OVC,0.37,WeatherDisplay:10.37,2013-01-20 09:36:00,
2013-01-20 20:41:00,69.8,66.1,29.44,NW,315,0.0,0.0,88,0.00,CLR,OVC,0.37,WeatherDisplay:10.37,2013-01-20 09:41:00,
2013-01-20 20:46:00,69.6,66.2,29.44,NW,315,0.0,0.0,89,0.00,CLR,OVC,0.37,WeatherDisplay:10.37,2013-01-20 09:46:00,
2013-01-20 20:51:00,69.6,65.9,29.44,NW,315,0.0,0.0,88,0.00,CLR,OVC,0.37,WeatherDisplay:10.37,2013-01-20 09:51:00,
2013-01-20 20:56:00,69.6,66.2,29.44,NW,315,0.0,0.0,89,0.00,CLR,OVC,0.37,WeatherDisplay:10.37,2013-01-20 09:56:00,
2013-01-20 21:01:00,69.6,66.2,29.44,NW,315,0.0,0.0,89,0.00,CLR,OVC,0.37,WeatherDisplay:10.37,2013-01-20 10:01:00,
2013-01-20 21:06:00,69.6,66.2,29.44,NW,315,0.0,0.0,89,0.00,CLR,OVC,0.37,WeatherDisplay:10.37,2013-01-20 10:06:00,
2013-01-20 21:11:00,69.6,66.2,29.44,NW,315,0.0,0.0,89,0.00,CLR,OVC,0.37,WeatherDisplay:10.37,2013-01-20 10:11:00,
2013-01-20 21:16:00,69.6,66.2,29.44,North,0,0.0,0.0,89,0.00,CLR,OVC,0.37,WeatherDisplay:10.37,2013-01-20 10:16:00,
2013-01-20 21:21:00,69.4,66.1,29.44,East,90,0.0,0.0,89,0.00,CLR,OVC,0.37,WeatherDisplay:10.37,2013-01-20 10:21:00,
2013-01-20 21:26:00,69.6,65.9,29.44,East,90,0.0,0.0,88,0.00,CLR,OVC,0.37,WeatherDisplay:10.37,2013-01-20 10:26:00,
2013-01-20 21:31:00,69.6,65.9,29.44,East,90,0.0,0.0,88,0.00,CLR,OVC,0.37,WeatherDisplay:10.37,2013-01-20 10:31:00,
2013-01-20 21:36:00,69.6,66.2,29.44,East,90,0.0,0.0,89,0.00,CLR,OVC,0.37,WeatherDisplay:10.37,2013-01-20 10:36:00,
2013-01-20 21:41:00,69.6,65.9,29.44,East,90,0.0,0.0,88,0.00,CLR,OVC,0.37,WeatherDisplay:10.37,2013-01-20 10:41:00,
2013-01-20 21:46:00,69.6,66.2,29.41,East,90,0.0,0.0,89,0.00,CLR,OVC,0.37,WeatherDisplay:10.37,2013-01-20 10:46:00,
2013-01-20 21:51:00,69.6,66.2,29.41,East,90,0.0,0.0,89,0.00,CLR,OVC,0.37,WeatherDisplay:10.37,2013-01-20 10:51:00,
2013-01-20 21:56:00,69.6,66.2,29.41,East,90,0.0,0.0,89,0.00,CLR,OVC,0.37,WeatherDisplay:10.37,2013-01-20 10:56:00,
2013-01-20 22:01:00,69.4,66.1,29.44,East,90,0.0,0.0,89,0.00,CLR,OVC,0.37,WeatherDisplay:10.37,2013-01-20 11:01:00,
2013-01-20 22:06:00,69.4,66.1,29.44,NE,45,0.0,0.0,89,0.00,CLR,OVC,0.37,WeatherDisplay:10.37,2013-01-20 11:06:00,
2013-01-20 22:11:00,69.3,65.9,29.44,NE,45,0.0,0.0,89,0.00,CLR,OVC,0.37,WeatherDisplay:10.37,2013-01-20 11:11:00,
2013-01-20 22:16:00,69.1,65.7,29.44,ENE,68,0.0,0.0,89,0.00,CLR,OVC,0.37,WeatherDisplay:10.37,2013-01-20 11:16:00,
2013-01-20 22:21:00,69.1,65.7,29.44,ESE,112,5.8,5.8,89,0.00,CLR,OVC,0.37,WeatherDisplay:10.37,2013-01-20 11:21:00,
2013-01-20 22:26:00,68.9,65.8,29.44,East,90,2.3,2.3,90,0.00,CLR,OVC,0.37,WeatherDisplay:10.37,2013-01-20 11:26:00,
2013-01-20 22:31:00,68.9,65.8,29.44,ESE,112,2.3,2.3,90,0.00,CLR,OVC,0.37,WeatherDisplay:10.37,2013-01-20 11:31:00,
2013-01-20 22:36:00,68.9,65.8,29.44,SE,135,2.6,0.0,90,0.00,CLR,OVC,0.37,WeatherDisplay:10.37,2013-01-20 11:36:00,
2013-01-20 22:41:00,68.9,65.8,29.44,ESE,112,2.3,0.0,90,0.00,CLR,OVC,0.37,WeatherDisplay:10.37,2013-01-20 11:41:00,
2013-01-20 22:46:00,68.9,65.8,29.44,ESE,112,2.3,0.0,90,0.00,CLR,OVC,0.37,WeatherDisplay:10.37,2013-01-20 11:46:00,
2013-01-20 22:51:00,68.9,65.8,29.44,ESE,112,0.0,0.0,90,0.00,CLR,OVC,0.37,WeatherDisplay:10.37,2013-01-20 11:51:00,
2013-01-20 22:56:00,68.9,65.8,29.44,ESE,112,0.0,0.0,90,0.00,CLR,OVC,0.37,WeatherDisplay:10.37,2013-01-20 11:56:00,
2013-01-20 23:01:00,69.1,66.0,29.41,East,90,0.0,0.0,90,0.00,CLR,OVC,0.37,WeatherDisplay:10.37,2013-01-20 12:01:00,
2013-01-20 23:06:00,69.1,66.0,29.41,East,90,0.0,0.0,90,0.00,CLR,OVC,0.37,WeatherDisplay:10.37,2013-01-20 12:06:00,
2013-01-20 23:11:00,69.1,66.0,29.41,SE,135,0.0,0.0,90,0.00,CLR,OVC,0.37,WeatherDisplay:10.37,2013-01-20 12:11:00,
2013-01-20 23:17:00,69.1,65.7,29.44,SE,135,0.0,0.0,89,0.00,CLR,OVC,0.37,WeatherDisplay:10.37,2013-01-20 12:17:00,
2013-01-20 23:22:00,69.1,65.7,29.44,SE,135,0.0,0.0,89,0.00,CLR,OVC,0.37,WeatherDisplay:10.37,2013-01-20 12:22:00,
2013-01-20 23:27:00,69.1,65.7,29.44,East,90,0.0,0.0,89,0.00,CLR,OVC,0.37,WeatherDisplay:10.37,2013-01-20 12:27:00,
2013-01-20 23:32:00,69.1,65.7,29.44,East,90,0.0,0.0,89,0.00,CLR,OVC,0.37,WeatherDisplay:10.37,2013-01-20 12:32:00,
2013-01-20 23:37:00,69.1,65.7,29.44,WSW,248,0.0,0.0,89,0.00,CLR,OVC,0.37,WeatherDisplay:10.37,2013-01-20 12:37:00,
2013-01-20 23:42:00,69.3,65.9,29.44,South,180,0.0,0.0,89,0.00,CLR,OVC,0.37,WeatherDisplay:10.37,2013-01-20 12:42:00,
2013-01-20 23:47:00,69.3,65.9,29.44,SSW,202,0.0,0.0,89,0.00,CLR,OVC,0.37,WeatherDisplay:10.37,2013-01-20 12:47:00,
2013-01-20 23:52:00,69.3,65.9,29.44,ESE,112,0.0,0.0,89,0.00,CLR,OVC,0.37,WeatherDisplay:10.37,2013-01-20 12:52:00,
2013-01-20 23:57:00,69.3,65.9,29.44,SE,135,0.0,0.0,89,0.00,CLR,OVC,0.37,WeatherDisplay:10.37,2013-01-20 12:57:00,